Weather History for Eastsound, WA

Change the Weather History Date:

Sunday, December 29, 2013

  Actual Average (KBLI) Record (KBLI)
Temperature  
Mean Temperature 40 °F 38 °F  
Max Temperature 44 °F 44 °F 59 °F (1952)
Min Temperature 35 °F 32 °F 0 °F (1968)
Degree Days  
Heating Degree Days 26 27  
Month to date heating degree days 773  
Cooling Degree Days 0 0  
Month to date cooling degree days 0  
Year to date cooling degree days 42  
Moisture  
Dew Point 39 °F    
Average Humidity 94    
Maximum Humidity 100    
Minimum Humidity 81    
Precipitation  
Precipitation 0.00 in 0.11 in 1.14 in (1995)
Month to date precipitation 3.98  
Year to date precipitation 35.59  
Sea Level Pressure  
Sea Level Pressure 30.38 in    
Wind  
Wind Speed 3 mph (South)    
Max Wind Speed 14 mph    
Max Gust Speed 18 mph    
Visibility 10 miles    
Events Rain    
T = Trace of Precipitation, MM = Missing Value Source: NWS Daily Summary

Daily Weather History Graph

Daily Weather History Graph

Search for Another Location

Airport:

Trip Planner

Search our weather history database for the weather conditions in past years. The results will help you decide how hot, cold, wet, or windy it might be!

Date:

Astronomy

Dec. 29, 2013 Rise Set
Actual Time 8:04 AM PST 4:23 PM PST
Civil Twilight 7:27 AM PST 5:00 PM PST
Nautical Twilight 6:47 AM PST 5:40 PM PST
Astronomical Twilight 6:08 AM PST 6:19 PM PST
Moon 4:47 AM PST 2:12 PM PST
Length of Visible Light 9h 33m
Length of Day
8h 19m
Waning Crescent, 10% of the Moon is Illuminated
Dec 29
Waning Crescent
Jan 1
New
Jan 7
First Quarter
Jan 15
Full
Jan 23
Last Quarter

Hourly Weather History & Observations

Time (PST) Temp. Windchill Dew Point Humidity Pressure Visibility Wind Dir Wind Speed Gust Speed Precip Events Conditions
12:15 AM 35.6 °F - 35.6 °F 100% 30.47 in 4.0 mi Calm Calm - N/A   Scattered Clouds
12:35 AM 37.4 °F - 37.4 °F 100% 30.47 in 8.0 mi Calm Calm - N/A   Partly Cloudy
12:55 AM 37.4 °F - 37.4 °F 100% 30.47 in 7.0 mi Calm Calm - N/A   Mostly Cloudy
1:15 AM 35.6 °F - 35.6 °F 100% 30.47 in 7.0 mi Calm Calm - N/A   Overcast
1:35 AM 37.4 °F - 37.4 °F 100% 30.47 in 9.0 mi Calm Calm - N/A   Overcast
1:55 AM 37.4 °F - 37.4 °F 100% 30.46 in 10.0 mi Calm Calm - N/A   Overcast
2:15 AM 37.4 °F - 37.4 °F 100% 30.46 in 10.0 mi Calm Calm - N/A   Scattered Clouds
2:35 AM 37.4 °F - 37.4 °F 100% 30.45 in 10.0 mi Calm Calm - N/A   Clear
2:55 AM 37.4 °F - 37.4 °F 100% 30.44 in 9.0 mi Calm Calm - N/A   Clear
3:15 AM 37.4 °F - 37.4 °F 100% 30.45 in 10.0 mi Calm Calm - N/A   Partly Cloudy
3:35 AM 37.4 °F - 37.4 °F 100% 30.44 in 10.0 mi Calm Calm - N/A   Partly Cloudy
3:55 AM 39.2 °F - 39.2 °F 100% 30.43 in 8.0 mi North - - N/A   Mostly Cloudy
4:15 AM 39.2 °F 37.0 °F 39.2 °F 100% 30.43 in 10.0 mi South 3.5 mph - N/A   Overcast
4:35 AM 39.2 °F 37.0 °F 39.2 °F 100% 30.41 in 10.0 mi South 3.5 mph - N/A   Mostly Cloudy
4:55 AM 39.2 °F 35.0 °F 39.2 °F 100% 30.40 in 10.0 mi South 5.8 mph - N/A   Partly Cloudy
5:15 AM 41.0 °F 38.0 °F 39.2 °F 93% 30.40 in 10.0 mi South 4.6 mph - N/A   Scattered Clouds
5:40 AM 41.0 °F 35.8 °F 39.2 °F 93% 30.39 in 10.0 mi South 8.1 mph - N/A   Partly Cloudy
5:55 AM 41.0 °F 35.8 °F 39.2 °F 93% 30.39 in 10.0 mi South 8.1 mph - N/A   Mostly Cloudy
6:15 AM 41.0 °F 36.4 °F 39.2 °F 93% 30.39 in 10.0 mi South 6.9 mph - N/A   Overcast
6:35 AM 41.0 °F 37.1 °F 41.0 °F 100% 30.39 in 10.0 mi South 5.8 mph - N/A   Overcast
6:55 AM 41.0 °F 38.0 °F 41.0 °F 100% 30.39 in 7.0 mi South 4.6 mph - N/A Rain Light Rain
7:15 AM 41.0 °F 37.1 °F 41.0 °F 100% 30.39 in 9.0 mi South 5.8 mph - N/A Rain Light Rain
7:35 AM 41.0 °F 38.0 °F 41.0 °F 100% 30.39 in 10.0 mi South 4.6 mph - N/A   Mostly Cloudy
7:55 AM 41.0 °F 39.0 °F 41.0 °F 100% 30.39 in 10.0 mi South 3.5 mph - N/A   Mostly Cloudy
8:15 AM 41.0 °F 35.8 °F 41.0 °F 100% 30.39 in 9.0 mi South 8.1 mph - N/A Rain Light Rain
8:35 AM 41.0 °F 38.0 °F 39.2 °F 93% 30.39 in 10.0 mi South 4.6 mph - N/A   Mostly Cloudy
8:55 AM 41.0 °F - 39.2 °F 93% 30.39 in 10.0 mi Calm Calm - N/A   Overcast
9:15 AM 41.0 °F 35.8 °F 39.2 °F 93% 30.39 in 10.0 mi South 8.1 mph - N/A   Overcast
9:35 AM 41.0 °F 35.8 °F 39.2 °F 93% 30.40 in 10.0 mi SSW 8.1 mph - N/A   Overcast
9:55 AM 41.0 °F 37.1 °F 39.2 °F 93% 30.40 in 10.0 mi South 5.8 mph - N/A   Overcast
10:15 AM 41.0 °F 36.4 °F 39.2 °F 93% 30.40 in 10.0 mi South 6.9 mph - N/A   Overcast
10:35 AM 41.0 °F 35.8 °F 39.2 °F 93% 30.39 in 10.0 mi South 8.1 mph - N/A   Overcast
10:55 AM 41.0 °F 35.2 °F 39.2 °F 93% 30.38 in 10.0 mi South 9.2 mph - N/A   Overcast
11:15 AM 42.8 °F 36.2 °F 39.2 °F 87% 30.38 in 10.0 mi South 12.7 mph 16.1 mph N/A   Overcast
11:35 AM 42.8 °F 35.8 °F 39.2 °F 87% 30.37 in 10.0 mi South 13.8 mph 17.3 mph N/A   Overcast
11:55 AM 42.8 °F 36.2 °F 39.2 °F 87% 30.36 in 10.0 mi South 12.7 mph - N/A   Mostly Cloudy
12:15 PM 42.8 °F 35.8 °F 39.2 °F 87% 30.36 in 10.0 mi South 13.8 mph - N/A   Partly Cloudy
12:35 PM 42.8 °F 36.2 °F 39.2 °F 87% 30.36 in 10.0 mi South 12.7 mph - N/A   Partly Cloudy
12:55 PM 42.8 °F 36.6 °F 39.2 °F 87% 30.35 in 10.0 mi South 11.5 mph 18.4 mph N/A   Scattered Clouds
1:15 PM 42.8 °F 36.6 °F 39.2 °F 87% 30.35 in 10.0 mi South 11.5 mph - N/A   Mostly Cloudy
1:35 PM 42.8 °F 38.6 °F 39.2 °F 87% 30.36 in 10.0 mi South 6.9 mph - N/A   Scattered Clouds
1:55 PM 44.6 °F 39.7 °F 39.2 °F 81% 30.35 in 10.0 mi South 9.2 mph - N/A   Partly Cloudy
2:15 PM 44.6 °F 41.4 °F 39.2 °F 81% 30.34 in 10.0 mi South 5.8 mph - N/A   Scattered Clouds
2:35 PM 44.6 °F 42.2 °F 39.2 °F 81% 30.34 in 10.0 mi South 4.6 mph - N/A   Partly Cloudy
2:55 PM 44.6 °F 41.4 °F 39.2 °F 81% 30.34 in 10.0 mi South 5.8 mph - N/A   Clear
3:15 PM 44.6 °F 41.4 °F 39.2 °F 81% 30.34 in 10.0 mi South 5.8 mph - N/A   Partly Cloudy
3:35 PM 42.8 °F - 39.2 °F 87% 30.35 in 10.0 mi Calm Calm - N/A   Scattered Clouds
3:55 PM 42.8 °F - 41.0 °F 93% 30.35 in 10.0 mi Calm Calm - N/A   Overcast
4:15 PM 42.8 °F 41.1 °F 39.2 °F 87% 30.35 in 10.0 mi South 3.5 mph - N/A   Overcast
4:35 PM 42.8 °F - 39.2 °F 87% 30.34 in 10.0 mi Calm Calm - N/A   Overcast
4:55 PM 42.8 °F - 39.2 °F 87% 30.34 in 10.0 mi Calm Calm - N/A   Scattered Clouds
5:15 PM 42.8 °F - 39.2 °F 87% 30.35 in 10.0 mi Calm Calm - N/A   Mostly Cloudy
5:35 PM 42.8 °F - 39.2 °F 87% 30.34 in 10.0 mi Calm Calm - N/A   Overcast
5:55 PM 42.8 °F - 39.2 °F 87% 30.34 in 10.0 mi Calm Calm - N/A   Scattered Clouds
6:15 PM 42.8 °F - 39.2 °F 87% 30.34 in 10.0 mi Calm Calm - N/A   Clear
6:35 PM 41.0 °F - 39.2 °F 93% 30.33 in 10.0 mi North - - N/A   Partly Cloudy
6:55 PM 41.0 °F - 39.2 °F 93% 30.34 in 10.0 mi Calm Calm - N/A   Mostly Cloudy
7:15 PM 41.0 °F - 39.2 °F 93% 30.34 in 10.0 mi Calm Calm - N/A   Overcast
7:35 PM 41.0 °F - 39.2 °F 93% 30.34 in 10.0 mi Calm Calm - N/A   Overcast
7:55 PM 41.0 °F - 39.2 °F 93% 30.34 in 10.0 mi Calm Calm - N/A   Overcast
8:15 PM 41.0 °F - 39.2 °F 93% 30.33 in 10.0 mi Calm Calm - N/A   Overcast
8:35 PM 41.0 °F - 39.2 °F 93% 30.33 in 10.0 mi Calm Calm - N/A   Overcast
8:55 PM 39.2 °F - 39.2 °F 100% 30.33 in 10.0 mi Calm Calm - N/A   Mostly Cloudy
9:15 PM 39.2 °F - 39.2 °F 100% 30.32 in 10.0 mi Calm Calm - N/A   Mostly Cloudy
9:35 PM 39.2 °F - 39.2 °F 100% 30.32 in 10.0 mi Calm Calm - N/A   Overcast
9:55 PM 39.2 °F - 39.2 °F 100% 30.32 in 10.0 mi Calm Calm - N/A   Overcast
10:15 PM 39.2 °F - 39.2 °F 100% 30.32 in 10.0 mi Calm Calm - N/A   Overcast
10:35 PM 39.2 °F - 39.2 °F 100% 30.33 in 10.0 mi Calm Calm - N/A   Mostly Cloudy
10:55 PM 39.2 °F - 39.2 °F 100% 30.32 in 9.0 mi Calm Calm - N/A   Mostly Cloudy
11:15 PM 39.2 °F - 39.2 °F 100% 30.32 in 8.0 mi Calm Calm - N/A   Mostly Cloudy
11:35 PM 39.2 °F - 39.2 °F 100% 30.31 in 7.0 mi Calm Calm - N/A   Scattered Clouds
11:55 PM 39.2 °F - 39.2 °F 100% 30.31 in 10.0 mi Calm Calm - N/A   Partly Cloudy